[[{"header":{"parameterUnit":"m.s-1","parameterCategory":1,"la1":30.2991,"la2":30.254,"lo1":-89.0895,"lo2":-89.0444,"dy":0.0017,"dx":0.0017,"nx":28,"ny":28,"refTime":"2025-08-30T21:00:00:Z","depth":0,"parameterNumber":2,"parameterNumberName":"U-component_of_WINDS"},"data":[0,0,0,0,0,0,0,0,0,0,0,0,0,0,0,0,0,0,0,0,0,0,0,0,0,0,0,0,0,0,0,0,0,0,0,0,0,0,0,0,0,0,0,0,0,0,0,0,0,0,0,0,0,0,0,0,0,0,-3.1752,-3.1752,0,-3.1792,-3.1792,-3.1793,-3.1671,-3.1667,-3.1663,-3.166,-3.1702,-3.1707,-3.1711,0,0,0,0,0,0,0,0,0,0,0,0,0,-3.1569,-3.1573,-3.1751,-3.1752,-3.1753,-3.1792,-3.1792,-3.1793,-3.1671,-3.1667,-3.1662,-3.1658,-3.1701,-3.1706,-3.1712,0,0,0,0,0,0,0,0,0,0,0,0,0,-3.1633,-3.1574,-3.1751,-3.1697,-3.1692,-3.1792,-3.1792,-3.1793,-3.1672,-3.1667,-3.1661,-3.1656,-3.1699,-3.1706,-3.1712,-3.1867,0,0,-3.1733,-3.1736,0,0,0,0,0,0,0,0,-3.1629,-3.1639,-3.1704,-3.1701,-3.1696,-3.172,-3.1743,-3.1818,-3.1674,-3.168,-3.166,-3.1653,-3.1713,-3.1718,-3.1738,-3.1869,-3.1871,-3.1734,-3.1738,-3.1741,-3.1743,0,0,0,0,0,0,0,-3.1625,-3.1637,-3.1767,-3.1705,-3.17,-3.167,-3.1673,-3.1757,-3.1727,-3.1679,-3.167,-3.1677,-3.1709,-3.1732,-3.1738,-3.1871,-3.1734,-3.174,-3.1744,-3.1747,-3.2129,-3.2134,0,0,0,0,0,0,-3.1627,-3.1634,-3.1766,-3.1769,-3.1648,-3.1678,-3.1681,-3.1718,-3.1726,-3.1722,-3.1681,-3.1671,-3.1723,-3.173,-3.1739,-3.1919,-3.1741,-3.1748,-3.1752,-3.2123,-3.213,-3.2136,0,0,0,0,0,0,-3.1624,-3.164,-3.1764,-3.1699,-3.1712,-3.1687,-3.173,-3.1722,-3.1744,-3.1728,-3.1722,-3.171,-3.1719,-3.173,-3.1835,-3.1919,-3.1751,-3.1757,-3.2116,-3.2125,-3.2133,-3.2282,0,0,0,0,0,0,-3.1619,-3.164,-3.1699,-3.1701,-3.1716,-3.1861,-3.1735,-3.1727,-3.1756,-3.1743,-3.1753,-3.1749,-3.1715,-3.1826,-3.1842,-3.1926,-3.1762,-3.2108,-3.212,-3.213,-3.227,-3.2295,-3.2317,0,0,0,0,0,-3.1613,-3.174,-3.1702,-3.1719,-3.1789,-3.1866,-3.1875,-3.1833,-3.1764,-3.1822,-3.1811,-3.1749,-3.1907,-3.1838,-3.1855,-3.1942,-3.2103,-3.2116,-3.213,-3.2259,-3.229,-3.2316,0,0,0,0,0,0,-3.1749,-3.1739,-3.1698,-3.1829,-3.1849,-3.1845,-3.1918,-3.1867,-3.1908,-3.1894,-3.184,-3.1843,-3.1959,-3.1961,-3.1883,-3.2091,-3.1993,-3.2011,-3.2086,-3.2115,-3.2138,-3.2135,-3.1768,0,0,0,0,0,-3.1794,-3.1857,-3.1845,-3.1962,-3.1974,-3.1945,-3.1976,-3.1942,-3.1961,-3.1969,-3.1966,-3.1987,-3.2041,-3.2078,-3.2127,-3.2269,-3.2269,-3.2337,-3.2361,-3.238,-3.2396,-3.247,-3.25,-3.2181,-3.2181,-3.218,0,0,-3.1888,-3.189,-3.1934,-3.1989,-3.2001,-3.2067,-3.1953,-3.2028,-3.2076,-3.198,-3.208,-3.2079,-3.2098,-3.2222,-3.2277,-3.2228,-3.2484,-3.2397,-3.2413,-3.2418,-3.2487,-3.2517,-3.2544,-3.219,-3.2188,-3.2187,0,0,-3.2093,-3.2101,-3.2199,-3.2212,-3.2231,-3.221,-3.2234,-3.2237,-3.2232,-3.2331,-3.226,-3.2317,-3.2412,-3.2428,-3.2449,-3.2658,-3.2601,-3.2675,-3.2799,-3.2871,-3.2896,-3.2918,-3.2992,-3.3019,-3.2691,-3.2691,-3.2692,0,-3.2207,-3.2304,-3.2255,-3.2335,-3.2361,-3.2276,-3.2374,-3.239,-3.2424,-3.2444,-3.2388,-3.2503,-3.2511,-3.2637,-3.2688,-3.2708,-3.2732,-3.2674,-3.2897,-3.2918,-3.2938,-3.3007,-3.3035,-3.27,-3.2699,-3.2698,-3.2697,0,-3.2443,-3.2511,-3.2588,-3.2622,-3.2656,-3.2745,-3.2709,-3.275,-3.2712,-3.2697,-3.2798,-3.2803,-3.2851,-3.2879,-3.2843,-3.3,-3.2968,-3.2906,-3.2806,-3.2978,-3.3042,-3.3069,-3.2713,-3.271,-3.2707,-3.2705,0,0,-3.2736,-3.274,-3.2769,-3.2783,-3.2796,-3.2848,-3.2932,-3.2978,-3.3013,-3.3039,-3.3108,-3.3189,-3.313,-3.3154,-3.3119,-3.3183,-3.3346,-3.3112,-3.3111,-3.3155,-3.3518,-3.3565,-3.3596,-3.3309,-3.3314,-3.3318,-3.3516,0,-3.2937,-3.308,-3.3038,-3.3182,-3.3243,-3.3163,-3.3236,-3.3252,-3.324,-3.329,-3.3276,-3.3334,-3.3253,-3.3266,-3.3326,-3.3314,-3.3419,-3.3299,-3.3372,-3.3375,-3.3369,-3.363,-3.368,-3.3867,-3.3541,-3.3545,-3.3548,0,-3.3191,-3.3225,-3.3375,-3.3377,-3.3401,-3.3467,-3.3505,-3.3554,-3.357,-3.3556,-3.3582,-3.3534,-3.3615,-3.3515,-3.3626,-3.3546,-3.3573,-3.3572,-3.3578,-3.3583,-3.3472,-3.3642,-3.3926,-3.3954,-3.3588,-3.3584,-3.3582,0,-3.3388,-3.3472,-3.3572,-3.3586,-3.3591,-3.3639,-3.3643,-3.3653,-3.3683,-3.3716,-3.3735,-3.3778,-3.3801,-3.3835,-3.3799,-3.373,-3.3915,-3.3812,-3.3906,-3.3907,-3.3949,-3.3946,-3.4241,-3.3967,-3.3967,-3.3966,-3.3966,0,-3.3616,-3.3711,-3.366,-3.3722,-3.3825,-3.3776,-3.3879,-3.3874,-3.3884,-3.3942,-3.3876,-3.3932,-3.3881,-3.3933,-3.3905,-3.4001,-3.4012,-3.4003,-3.3995,-3.4009,-3.401,-3.4026,-3.4012,-3.3974,-3.3972,-3.3971,-3.3969,0,-3.3854,-3.3824,-3.3928,-3.3923,-3.3924,-3.4,-3.3996,-3.4052,-3.4034,-3.4109,-3.4124,-3.4097,-3.4154,-3.4121,-3.4181,-3.4162,-3.4285,-3.426,-3.428,-3.4273,-3.4368,-3.4359,-3.4682,-3.4721,-3.4424,-3.4426,-3.4429,0,-3.4002,-3.4073,-3.4075,-3.4109,-3.4117,-3.4174,-3.4203,-3.4157,-3.419,-3.4212,-3.4266,-3.4317,-3.4356,-3.4451,-3.4436,-3.4481,-3.4455,-3.4565,-3.4461,-3.4473,-3.4455,-3.4451,-3.4458,-3.4586,-3.459,-3.4592,-3.4595,0,-3.4267,-3.4248,-3.4293,-3.4333,-3.437,-3.44,-3.4423,-3.4455,-3.4408,-3.4449,-3.4507,-3.4537,-3.4596,-3.4647,-3.4685,-3.4688,-3.4634,-3.4627,-3.4651,-3.4666,-3.4675,-3.467,-3.4337,-3.462,-3.4618,-3.4616,-3.4614,-3.4613,-3.4463,-3.4522,-3.4532,-3.4584,-3.4597,-3.462,-3.4672,-3.466,-3.4707,-3.4752,-3.4721,-3.4789,-3.4801,-3.4845,-3.4856,-3.4907,-3.4863,-3.4898,-3.4906,-3.4916,-3.4928,-3.4667,-3.4914,-3.4913,-3.4913,-3.4912,-3.4911,0,-3.4723,-3.4726,-3.4774,-3.4809,-3.485,-3.4794,-3.4817,-3.4855,-3.4915,-3.4931,-3.4969,-3.5035,-3.5084,-3.5072,-3.5116,-3.516,-3.5136,-3.5173,-3.5169,-3.517,-3.4966,-3.494,-3.5191,-3.5191,-3.5191,-3.5191,-3.5191,-3.5191,-3.4864,-3.4959,-3.4941,-3.5042,-3.5043,-3.5108,-3.5126,-3.5147,-3.5159,-3.5234,-3.5275,-3.5267,-3.5271,-3.5315,-3.5357,-3.5352,-3.5371,-3.5417,-3.5404,-3.5213,-3.5185,-3.5159,-3.5134,-3.5422,-3.5423,-3.5604,-3.5605,-3.5607]},{"header":{"parameterUnit":"m.s-1","parameterCategory":1,"la1":30.2991,"la2":30.254,"lo1":-89.0895,"lo2":-89.0444,"dy":0.0017,"dx":0.0017,"nx":28,"ny":28,"refTime":"2025-08-30T21:00:00:Z","depth":0,"parameterNumber":3,"parameterNumberName":"V-component_of_WINDS"},"data":[0,0,0,0,0,0,0,0,0,0,0,0,0,0,0,0,0,0,0,0,0,0,0,0,0,0,0,0,0,0,0,0,0,0,0,0,0,0,0,0,0,0,0,0,0,0,0,0,0,0,0,0,0,0,0,0,0,0,-3.6771,-3.6771,0,-3.6832,-3.6832,-3.6833,-3.6798,-3.6797,-3.6795,-3.6793,-3.6853,-3.6856,-3.6859,0,0,0,0,0,0,0,0,0,0,0,0,0,-3.6621,-3.6624,-3.6771,-3.6772,-3.6772,-3.6832,-3.6832,-3.6833,-3.6799,-3.6797,-3.6795,-3.6793,-3.6852,-3.6856,-3.6859,0,0,0,0,0,0,0,0,0,0,0,0,0,-3.6684,-3.6625,-3.6771,-3.6762,-3.6762,-3.6831,-3.6832,-3.6833,-3.6799,-3.6797,-3.6794,-3.6792,-3.6851,-3.6855,-3.686,-3.694,0,0,-3.6874,-3.6876,0,0,0,0,0,0,0,0,-3.668,-3.669,-3.6763,-3.6763,-3.6763,-3.6805,-3.6801,-3.6869,-3.68,-3.6785,-3.6793,-3.679,-3.6839,-3.6844,-3.6861,-3.6943,-3.6945,-3.6875,-3.6878,-3.688,-3.6881,0,0,0,0,0,0,0,-3.6676,-3.6687,-3.6795,-3.6764,-3.6764,-3.6754,-3.676,-3.6814,-3.6825,-3.6786,-3.6784,-3.6792,-3.6838,-3.6857,-3.6862,-3.6946,-3.6875,-3.6879,-3.6882,-3.6884,-3.7094,-3.7096,0,0,0,0,0,0,-3.6673,-3.6683,-3.6793,-3.6797,-3.6715,-3.6759,-3.6766,-3.6794,-3.6825,-3.6827,-3.6794,-3.679,-3.685,-3.6857,-3.6864,-3.6959,-3.688,-3.6884,-3.6887,-3.7091,-3.7094,-3.7097,0,0,0,0,0,0,-3.667,-3.6683,-3.679,-3.6739,-3.6752,-3.6764,-3.6796,-3.6796,-3.6815,-3.683,-3.6832,-3.6811,-3.6848,-3.6858,-3.6921,-3.696,-3.6886,-3.6891,-3.7088,-3.7092,-3.7096,-3.7149,0,0,0,0,0,0,-3.6666,-3.6682,-3.6714,-3.674,-3.6755,-3.6847,-3.6798,-3.68,-3.6823,-3.6819,-3.6847,-3.6849,-3.6847,-3.6914,-3.6926,-3.6965,-3.6894,-3.7084,-3.709,-3.7095,-3.7143,-3.7154,-3.7163,0,0,0,0,0,-3.666,-3.6726,-3.6715,-3.6729,-3.6795,-3.685,-3.6858,-3.6855,-3.6827,-3.6858,-3.6867,-3.6848,-3.6954,-3.6921,-3.6934,-3.6975,-3.7082,-3.7088,-3.7094,-3.7139,-3.7152,-3.7163,0,0,0,0,0,0,-3.6703,-3.6729,-3.6718,-3.6794,-3.682,-3.6844,-3.6883,-3.6869,-3.6903,-3.6897,-3.6892,-3.6898,-3.6964,-3.6976,-3.6939,-3.7053,-3.7013,-3.7022,-3.7043,-3.7055,-3.7065,-3.706,-3.6898,0,0,0,0,0,-3.6721,-3.6765,-3.6785,-3.685,-3.6864,-3.6871,-3.6895,-3.6891,-3.6917,-3.6927,-3.6942,-3.6967,-3.7005,-3.7031,-3.7068,-3.7145,-3.715,-3.718,-3.719,-3.7198,-3.7205,-3.7245,-3.7258,-3.7118,-3.7118,-3.7118,0,0,-3.6759,-3.6779,-3.6807,-3.6859,-3.6879,-3.6922,-3.6881,-3.6929,-3.6961,-3.6934,-3.6995,-3.7006,-3.7034,-3.7104,-3.7136,-3.7116,-3.7245,-3.7205,-3.7212,-3.7215,-3.7253,-3.7266,-3.7278,-3.7122,-3.7121,-3.712,0,0,-3.6851,-3.6871,-3.6927,-3.6947,-3.6977,-3.6982,-3.6995,-3.7021,-3.7027,-3.7088,-3.7069,-3.7106,-3.7173,-3.7193,-3.7212,-3.731,-3.7293,-3.7322,-3.7373,-3.7412,-3.7423,-3.7433,-3.7466,-3.7478,-3.733,-3.733,-3.733,0,-3.6894,-3.696,-3.6957,-3.7006,-3.7029,-3.7008,-3.7063,-3.7083,-3.7123,-3.7139,-3.7116,-3.72,-3.7217,-3.729,-3.7314,-3.7331,-3.7344,-3.7319,-3.7422,-3.7432,-3.7441,-3.7472,-3.7485,-3.7333,-3.7333,-3.7332,-3.7332,0,-3.7011,-3.7057,-3.7098,-3.7138,-3.7165,-3.7218,-3.7221,-3.7249,-3.7242,-3.7248,-3.7309,-3.7329,-3.7369,-3.7386,-3.7379,-3.7458,-3.7445,-3.7423,-3.7382,-3.7457,-3.7487,-3.7499,-3.7338,-3.7337,-3.7336,-3.7335,0,0,-3.7131,-3.7168,-3.7183,-3.72,-3.7231,-3.7266,-3.7316,-3.7356,-3.7379,-3.7407,-3.7448,-3.7505,-3.7484,-3.7506,-3.7501,-3.7536,-3.761,-3.7509,-3.7509,-3.7526,-3.7696,-3.7712,-3.7726,-3.7599,-3.7601,-3.7603,-3.7693,0,-3.7224,-3.7313,-3.7311,-3.7393,-3.7434,-3.7414,-3.7458,-3.7481,-3.7488,-3.7522,-3.7529,-3.757,-3.754,-3.7552,-3.7585,-3.7594,-3.7644,-3.7587,-3.7635,-3.7637,-3.7628,-3.7742,-3.776,-3.7844,-3.7705,-3.7707,-3.7708,0,-3.7344,-3.7376,-3.7463,-3.7486,-3.7504,-3.7543,-3.7578,-3.7612,-3.7637,-3.764,-3.7663,-3.7653,-3.7702,-3.7661,-3.7728,-3.769,-3.7709,-3.7716,-3.7719,-3.7723,-3.7677,-3.7748,-3.7871,-3.7883,-3.7727,-3.7725,-3.7724,0,-3.7421,-3.7486,-3.7546,-3.7561,-3.7591,-3.7619,-3.7632,-3.7655,-3.7678,-3.7708,-3.7723,-3.7758,-3.7778,-3.7805,-3.7803,-3.7774,-3.7871,-3.783,-3.7873,-3.7873,-3.7894,-3.7892,-3.8021,-3.7908,-3.7908,-3.7908,-3.7907,0,-3.7524,-3.7577,-3.7581,-3.7618,-3.7676,-3.7673,-3.773,-3.7741,-3.7761,-3.7798,-3.7782,-3.7817,-3.7814,-3.7849,-3.7848,-3.7903,-3.7912,-3.7914,-3.7913,-3.7915,-3.7915,-3.7927,-3.7921,-3.7911,-3.791,-3.791,-3.7909,0,-3.762,-3.7625,-3.7688,-3.7711,-3.7718,-3.776,-3.7778,-3.7812,-3.7818,-3.7865,-3.7875,-3.7883,-3.7924,-3.7925,-3.7971,-3.7971,-3.8037,-3.803,-3.8029,-3.8027,-3.8069,-3.8065,-3.821,-3.8228,-3.8104,-3.8106,-3.8107,0,-3.7685,-3.7725,-3.7752,-3.7776,-3.7791,-3.7831,-3.7854,-3.7852,-3.7876,-3.7907,-3.7937,-3.7976,-3.8007,-3.8072,-3.8081,-3.8115,-3.8108,-3.8156,-3.8113,-3.8113,-3.8107,-3.8105,-3.8108,-3.8165,-3.8166,-3.8167,-3.8168,0,-3.7799,-3.7799,-3.7834,-3.787,-3.7899,-3.7927,-3.7952,-3.7973,-3.7973,-3.8002,-3.8043,-3.8067,-3.8113,-3.8152,-3.8185,-3.8197,-3.8182,-3.8182,-3.8193,-3.8195,-3.8192,-3.8193,-3.805,-3.8178,-3.8177,-3.8176,-3.8176,-3.8175,-3.788,-3.7915,-3.7939,-3.7978,-3.7997,-3.8021,-3.8054,-3.8063,-3.8098,-3.8136,-3.8132,-3.8178,-3.82,-3.8243,-3.8258,-3.8293,-3.8276,-3.8293,-3.8297,-3.8301,-3.8305,-3.8188,-3.8299,-3.8299,-3.8298,-3.8298,-3.8298,0,-3.7992,-3.8007,-3.8043,-3.8079,-3.811,-3.8094,-3.8121,-3.8148,-3.8188,-3.821,-3.8241,-3.8287,-3.8324,-3.8336,-3.8371,-3.8396,-3.839,-3.8405,-3.8403,-3.8405,-3.8319,-3.8305,-3.8409,-3.8409,-3.8409,-3.8409,-3.8409,-3.8409,-3.8054,-3.8111,-3.8114,-3.818,-3.8193,-3.8238,-3.8255,-3.8277,-3.8294,-3.8347,-3.8378,-3.8385,-3.8403,-3.8439,-3.8471,-3.8474,-3.8487,-3.8505,-3.8504,-3.8423,-3.8412,-3.8401,-3.8388,-3.8508,-3.8508,-3.8588,-3.8588,-3.8589]}]]